Location: Unspecified
(43.4354°N, 0.0000°E)
Time: 07:12:37
(UTC+00:00)

Courier 1B - Pass Details

Date: 27 June 2019
Orbit: 963 x 1209 km, 28.3° (Epoch: 19 July)

Event Time Altitude Azimuth Distance (km) Brightness Sun altitude
Rises 21:33:04 0° 251° (WSW) 3,910 10.9 -14.9°
Reaches altitude 10° 21:39:01 10° 214° (SW) 3,022 9.8 -15.5°
Maximum altitude 21:40:13 10° 204° (SSW) 3,003 9.7 -15.6°
Drops below altitude 10° 21:41:26 10° 195° (SSW) 3,047 9.7 -15.7°
Enters shadow 21:42:03 10° 190° (S) 3,094 9.7 -15.8°
Sets 21:47:37 0° 158° (SSE) 4,062 - -16.4°
